KLC334 YBBN-YWLM

Flight info

Callsign KLC334
Flight time 1h 6m
Altitude 40000
Route SANEG H91 SANAD/N0322F190 V779 LAXUM
Aircraft E190/M-SDE3GILORVW/S

Departure

Time 2026-04-23 22:45
Airport Brisbane International Airport (YBBN)

Arrival

Time 2026-04-23 23:51
Airport Newcastle Airport (YWLM)
Time Latitude Longitude Altitude Speed Heading
2026-04-23 22:23 -27.38331 153.12295 16 ft 0 kts 289°
2026-04-23 22:34 -27.38333 153.12302 16 ft 2 kts 289°
2026-04-23 22:34 -27.38339 153.12319 20 ft 2 kts 289°
2026-04-23 22:35 -27.38345 153.12336 19 ft 2 kts 288°
2026-04-23 22:35 -27.38350 153.12353 19 ft 2 kts 273°
2026-04-23 22:35 -27.38351 153.12371 20 ft 2 kts 269°
2026-04-23 22:35 -27.38349 153.12389 20 ft 2 kts 275°
2026-04-23 22:36 -27.38355 153.12406 19 ft 2 kts 326°
2026-04-23 22:36 -27.38360 153.12410 18 ft 0 kts 346°
2026-04-23 22:36 -27.38358 153.12409 18 ft 1 kts 346°
2026-04-23 22:37 -27.38338 153.12405 17 ft 4 kts 348°
2026-04-23 22:37 -27.38300 153.12405 16 ft 6 kts 24°
2026-04-23 22:37 -27.38275 153.12452 16 ft 8 kts 91°
2026-04-23 22:37 -27.38300 153.12515 16 ft 10 kts 120°
2026-04-23 22:38 -27.38344 153.12578 17 ft 11 kts 135°
2026-04-23 22:38 -27.38378 153.12650 17 ft 11 kts 89°
2026-04-23 22:38 -27.38337 153.12704 17 ft 10 kts 34°
2026-04-23 22:38 -27.38266 153.12744 17 ft 13 kts 26°
2026-04-23 22:39 -27.38178 153.12795 17 ft 15 kts 29°
2026-04-23 22:39 -27.38077 153.12853 16 ft 18 kts 26°
2026-04-23 22:39 -27.37959 153.12920 16 ft 20 kts 26°
2026-04-23 22:39 -27.37827 153.12997 16 ft 22 kts 27°
2026-04-23 22:40 -27.37680 153.13080 17 ft 25 kts 27°
2026-04-23 22:40 -27.37521 153.13170 17 ft 26 kts 27°
2026-04-23 22:40 -27.37373 153.13257 17 ft 0 kts 30°
2026-04-23 22:41 -27.37368 153.13261 16 ft 2 kts 30°
2026-04-23 22:41 -27.37345 153.13275 16 ft 5 kts 28°
2026-04-23 22:41 -27.37322 153.13307 16 ft 6 kts 74°
2026-04-23 22:42 -27.37331 153.13356 19 ft 8 kts 113°
2026-04-23 22:42 -27.37371 153.13406 17 ft 9 kts 144°
2026-04-23 22:42 -27.37437 153.13430 18 ft 11 kts 173°
2026-04-23 22:42 -27.37511 153.13405 17 ft 9 kts 207°
2026-04-23 22:43 -27.37514 153.13403 17 ft 0 kts 207°
2026-04-23 22:44 -27.37647 153.13326 17 ft 56 kts 207°
2026-04-23 22:44 -27.38210 153.13005 19 ft 122 kts 207°
2026-04-23 22:44 -27.39087 153.12509 310 ft 155 kts 206°
2026-04-23 22:45 -27.40147 153.11966 872 ft 180 kts 205°
2026-04-23 22:45 -27.41371 153.11317 1486 ft 207 kts 204°
2026-04-23 22:45 -27.42768 153.10603 2152 ft 229 kts 191°
2026-04-23 22:45 -27.44327 153.10726 3268 ft 228 kts 156°
2026-04-23 22:46 -27.45661 153.11691 4359 ft 228 kts 144°
2026-04-23 22:46 -27.46948 153.12696 5416 ft 227 kts 144°
2026-04-23 22:46 -27.48219 153.13722 6512 ft 224 kts 143°
2026-04-23 22:46 -27.49571 153.14651 7150 ft 241 kts 158°
2026-04-23 22:47 -27.51280 153.14888 7775 ft 257 kts 182°
2026-04-23 22:47 -27.53062 153.14418 8519 ft 268 kts 194°
2026-04-23 22:47 -27.54850 153.13763 9354 ft 273 kts 195°
2026-04-23 22:47 -27.56653 153.13047 10201 ft 278 kts 197°
2026-04-23 22:48 -27.58548 153.12317 10675 ft 295 kts 197°
2026-04-23 22:48 -27.60528 153.11554 11263 ft 304 kts 197°
2026-04-23 22:48 -27.62551 153.10782 11992 ft 309 kts 195°
2026-04-23 22:48 -27.64618 153.10100 12780 ft 311 kts 194°
2026-04-23 22:49 -27.66706 153.09417 13607 ft 313 kts 195°
2026-04-23 22:49 -27.68775 153.08733 14389 ft 315 kts 195°
2026-04-23 22:49 -27.70885 153.08033 15094 ft 318 kts 195°
2026-04-23 22:49 -27.73012 153.07326 15821 ft 319 kts 195°
2026-04-23 22:50 -27.75153 153.06612 16519 ft 322 kts 194°
2026-04-23 22:50 -27.77311 153.05893 17196 ft 325 kts 194°
2026-04-23 22:50 -27.79484 153.05166 17891 ft 327 kts 194°
2026-04-23 22:50 -27.81677 153.04434 18572 ft 330 kts 194°
2026-04-23 22:51 -27.83862 153.03596 19170 ft 334 kts 200°
2026-04-23 22:51 -27.86034 153.02599 19801 ft 337 kts 200°
2026-04-23 22:51 -27.88227 153.01620 20434 ft 341 kts 200°
2026-04-23 22:51 -27.90445 153.00632 21067 ft 344 kts 200°
2026-04-23 22:52 -27.92680 152.99643 21655 ft 347 kts 200°
2026-04-23 22:52 -27.94944 152.98643 22191 ft 351 kts 200°
2026-04-23 22:52 -27.97226 152.97636 22733 ft 354 kts 200°
2026-04-23 22:52 -27.99528 152.96623 23247 ft 357 kts 201°
2026-04-23 22:53 -28.01828 152.95608 23755 ft 360 kts 201°
2026-04-23 22:53 -28.04174 152.94575 24204 ft 363 kts 201°
2026-04-23 22:53 -28.06535 152.93535 24635 ft 366 kts 201°
2026-04-23 22:53 -28.08913 152.92487 25076 ft 369 kts 201°
2026-04-23 22:54 -28.11315 152.91423 25590 ft 370 kts 200°
2026-04-23 22:54 -28.13730 152.90349 25958 ft 373 kts 201°
2026-04-23 22:54 -28.16165 152.89267 26371 ft 376 kts 201°
2026-04-23 22:54 -28.18618 152.88178 26782 ft 378 kts 201°
2026-04-23 22:55 -28.21079 152.87083 27183 ft 380 kts 201°
2026-04-23 22:55 -28.23553 152.85983 27559 ft 381 kts 201°
2026-04-23 22:55 -28.26044 152.84875 27748 ft 390 kts 201°
2026-04-23 22:55 -28.28609 152.83733 27759 ft 401 kts 201°
2026-04-23 22:56 -28.31228 152.82566 27882 ft 408 kts 201°
2026-04-23 22:56 -28.33885 152.81382 28118 ft 411 kts 201°
2026-04-23 22:56 -28.36548 152.80192 28612 ft 408 kts 201°
2026-04-23 22:56 -28.39196 152.79012 28984 ft 408 kts 201°
2026-04-23 22:57 -28.41821 152.77842 29257 ft 411 kts 201°
2026-04-23 22:57 -28.44485 152.76653 29566 ft 412 kts 201°
2026-04-23 22:57 -28.47158 152.75460 29974 ft 412 kts 201°
2026-04-23 22:57 -28.49826 152.74267 30445 ft 411 kts 202°
2026-04-23 22:58 -28.52482 152.73080 30875 ft 409 kts 202°
2026-04-23 22:58 -28.55135 152.71892 31174 ft 409 kts 202°
2026-04-23 22:58 -28.57747 152.70719 31671 ft 405 kts 202°
2026-04-23 22:58 -28.60381 152.69539 31828 ft 409 kts 201°
2026-04-23 22:59 -28.63035 152.68351 32065 ft 411 kts 201°
2026-04-23 22:59 -28.65696 152.67157 32334 ft 412 kts 201°
2026-04-23 22:59 -28.68363 152.65961 32624 ft 412 kts 201°
2026-04-23 22:59 -28.71029 152.64764 32934 ft 411 kts 201°
2026-04-23 23:00 -28.73689 152.63569 33256 ft 411 kts 201°
2026-04-23 23:00 -28.76347 152.62375 33566 ft 410 kts 201°
2026-04-23 23:00 -28.78969 152.61195 33880 ft 410 kts 201°
2026-04-23 23:00 -28.81622 152.60001 34183 ft 410 kts 201°
2026-04-23 23:01 -28.84273 152.58803 34489 ft 409 kts 203°
2026-04-23 23:01 -28.86836 152.57380 34706 ft 410 kts 207°
2026-04-23 23:01 -28.89363 152.55872 34941 ft 410 kts 207°
2026-04-23 23:01 -28.91892 152.54365 35170 ft 410 kts 207°
2026-04-23 23:02 -28.94425 152.52855 35399 ft 411 kts 207°
2026-04-23 23:02 -28.96959 152.51345 35664 ft 410 kts 207°
2026-04-23 23:02 -28.99488 152.49837 35949 ft 409 kts 207°
2026-04-23 23:02 -29.02007 152.48333 36203 ft 409 kts 207°
2026-04-23 23:03 -29.04529 152.46826 36437 ft 409 kts 207°
2026-04-23 23:03 -29.07057 152.45313 36645 ft 410 kts 207°
2026-04-23 23:03 -29.09591 152.43799 36831 ft 411 kts 207°
2026-04-23 23:03 -29.12127 152.42282 37063 ft 412 kts 207°
2026-04-23 23:04 -29.14664 152.40763 37310 ft 412 kts 207°
2026-04-23 23:04 -29.17203 152.39242 37569 ft 412 kts 207°
2026-04-23 23:04 -29.19741 152.37722 37806 ft 412 kts 207°
2026-04-23 23:04 -29.22247 152.36220 38046 ft 412 kts 207°
2026-04-23 23:05 -29.24783 152.34700 38280 ft 411 kts 207°
2026-04-23 23:05 -29.27321 152.33174 38475 ft 412 kts 207°
2026-04-23 23:05 -29.29857 152.31648 38767 ft 410 kts 207°
2026-04-23 23:05 -29.32385 152.30131 39037 ft 409 kts 207°
2026-04-23 23:06 -29.34913 152.28614 39216 ft 410 kts 207°
2026-04-23 23:06 -29.37434 152.27099 39405 ft 409 kts 207°
2026-04-23 23:06 -29.39955 152.25583 39579 ft 409 kts 207°
2026-04-23 23:06 -29.42475 152.24065 39740 ft 409 kts 207°
2026-04-23 23:07 -29.44991 152.22549 39916 ft 409 kts 207°
2026-04-23 23:07 -29.47507 152.21031 40059 ft 409 kts 207°
2026-04-23 23:07 -29.50025 152.19516 40231 ft 408 kts 207°
2026-04-23 23:07 -29.52530 152.18005 40527 ft 404 kts 207°
2026-04-23 23:08 -29.55033 152.16493 40526 ft 409 kts 207°
2026-04-23 23:08 -29.60115 152.13422 40536 ft 416 kts 207°
2026-04-23 23:09 -29.65269 152.10303 40452 ft 420 kts 207°
2026-04-23 23:09 -29.70451 152.07356 40423 ft 418 kts 197°
2026-04-23 23:10 -29.75210 152.06045 40414 ft 419 kts 193°
2026-04-23 23:10 -29.81808 152.04353 40423 ft 418 kts 193°
2026-04-23 23:11 -29.87486 152.02889 40425 ft 418 kts 193°
2026-04-23 23:11 -29.93157 152.01423 40427 ft 418 kts 193°
2026-04-23 23:12 -29.98834 151.99953 40430 ft 418 kts 193°
2026-04-23 23:12 -30.04526 151.98477 40429 ft 419 kts 193°
2026-04-23 23:13 -30.10223 151.96997 40439 ft 419 kts 193°
2026-04-23 23:13 -30.14956 151.95767 40440 ft 419 kts 193°
2026-04-23 23:14 -30.21578 151.94044 40443 ft 419 kts 193°
2026-04-23 23:14 -30.26308 151.92812 40439 ft 417 kts 193°
2026-04-23 23:15 -30.31950 151.91310 40451 ft 415 kts 197°
2026-04-23 23:15 -30.37352 151.88903 40455 ft 417 kts 201°
2026-04-23 23:16 -30.42721 151.86391 40449 ft 416 kts 201°
2026-04-23 23:16 -30.48102 151.83875 40454 ft 417 kts 201°
2026-04-23 23:17 -30.53480 151.81361 40450 ft 417 kts 201°
2026-04-23 23:17 -30.58763 151.78889 40449 ft 417 kts 201°
2026-04-23 23:18 -30.64141 151.76368 40451 ft 417 kts 201°
2026-04-23 23:18 -30.69518 151.73843 40438 ft 417 kts 201°
2026-04-23 23:19 -30.74887 151.71319 40452 ft 416 kts 201°
2026-04-23 23:19 -30.80226 151.68807 40454 ft 416 kts 201°
2026-04-23 23:20 -30.85597 151.66277 40453 ft 416 kts 201°
2026-04-23 23:20 -30.90968 151.63744 40438 ft 417 kts 201°
2026-04-23 23:21 -30.96332 151.61213 40445 ft 413 kts 201°
2026-04-23 23:21 -31.01660 151.58692 40459 ft 414 kts 201°
2026-04-23 23:22 -31.07001 151.56163 40453 ft 415 kts 201°
2026-04-23 23:22 -31.12348 151.53628 40457 ft 414 kts 201°
2026-04-23 23:23 -31.17692 151.51091 40467 ft 414 kts 201°
2026-04-23 23:23 -31.23036 151.48552 40446 ft 415 kts 201°
2026-04-23 23:23 -31.25713 151.47278 39991 ft 414 kts 201°
2026-04-23 23:24 -31.28318 151.46037 39793 ft 407 kts 201°
2026-04-23 23:24 -31.30991 151.44763 39136 ft 412 kts 201°
2026-04-23 23:24 -31.33611 151.43512 38624 ft 408 kts 200°
2026-04-23 23:24 -31.36252 151.42320 38052 ft 406 kts 193°
2026-04-23 23:25 -31.39015 151.41774 37588 ft 402 kts 180°
2026-04-23 23:25 -31.41785 151.42150 37027 ft 402 kts 167°
2026-04-23 23:25 -31.44502 151.42938 36497 ft 403 kts 165°
2026-04-23 23:25 -31.47216 151.43746 35955 ft 402 kts 165°
2026-04-23 23:26 -31.49924 151.44549 35410 ft 401 kts 165°
2026-04-23 23:26 -31.52629 151.45351 34890 ft 400 kts 165°
2026-04-23 23:26 -31.55333 151.46150 34334 ft 400 kts 165°
2026-04-23 23:26 -31.58023 151.46942 33838 ft 398 kts 165°
2026-04-23 23:27 -31.60715 151.47728 33290 ft 398 kts 164°
2026-04-23 23:27 -31.63388 151.48510 32770 ft 395 kts 164°
2026-04-23 23:27 -31.66040 151.49282 32245 ft 391 kts 164°
2026-04-23 23:27 -31.68662 151.50043 31728 ft 386 kts 164°
2026-04-23 23:28 -31.71255 151.50793 31227 ft 381 kts 164°
2026-04-23 23:28 -31.73792 151.51523 30734 ft 378 kts 163°
2026-04-23 23:28 -31.76329 151.52252 30184 ft 373 kts 163°
2026-04-23 23:28 -31.78827 151.52968 29727 ft 367 kts 163°
2026-04-23 23:29 -31.81310 151.53682 29250 ft 366 kts 163°
2026-04-23 23:29 -31.83769 151.54428 28729 ft 362 kts 163°
2026-04-23 23:29 -31.86195 151.55149 28292 ft 360 kts 163°
2026-04-23 23:29 -31.88623 151.55867 27811 ft 358 kts 163°
2026-04-23 23:30 -31.91039 151.56581 27349 ft 356 kts 163°
2026-04-23 23:30 -31.93436 151.57299 26861 ft 355 kts 163°
2026-04-23 23:30 -31.95816 151.58008 26396 ft 351 kts 163°
2026-04-23 23:30 -31.98180 151.58714 25924 ft 349 kts 163°
2026-04-23 23:31 -32.00525 151.59415 25473 ft 346 kts 163°
2026-04-23 23:31 -32.02857 151.60103 25013 ft 344 kts 163°
2026-04-23 23:31 -32.05174 151.60799 24538 ft 343 kts 163°
2026-04-23 23:31 -32.07482 151.61492 24124 ft 341 kts 163°
2026-04-23 23:32 -32.09774 151.62178 23601 ft 339 kts 163°
2026-04-23 23:32 -32.12020 151.62849 23202 ft 336 kts 163°
2026-04-23 23:32 -32.14286 151.63525 22757 ft 336 kts 163°
2026-04-23 23:32 -32.16551 151.64209 22306 ft 335 kts 163°
2026-04-23 23:33 -32.18804 151.64893 21883 ft 333 kts 163°
2026-04-23 23:33 -32.21050 151.65569 21410 ft 332 kts 163°
2026-04-23 23:33 -32.23283 151.66239 20985 ft 330 kts 163°
2026-04-23 23:33 -32.25505 151.66910 20533 ft 329 kts 163°
2026-04-23 23:34 -32.27715 151.67575 20110 ft 328 kts 163°
2026-04-23 23:34 -32.29922 151.68243 19680 ft 326 kts 163°
2026-04-23 23:34 -32.32102 151.68902 19235 ft 320 kts 163°
2026-04-23 23:34 -32.34240 151.69540 18822 ft 314 kts 163°
2026-04-23 23:35 -32.36340 151.70151 18381 ft 307 kts 163°
2026-04-23 23:35 -32.38396 151.70759 18003 ft 302 kts 163°
2026-04-23 23:35 -32.40431 151.71362 17605 ft 302 kts 163°
2026-04-23 23:35 -32.42467 151.71965 17210 ft 301 kts 163°
2026-04-23 23:36 -32.44367 151.72928 16772 ft 297 kts 141°
2026-04-23 23:36 -32.45838 151.74610 16432 ft 293 kts 133°
2026-04-23 23:36 -32.47236 151.76372 16011 ft 294 kts 132°
2026-04-23 23:36 -32.48636 151.78126 15626 ft 292 kts 133°
2026-04-23 23:37 -32.50031 151.79870 15234 ft 291 kts 133°
2026-04-23 23:37 -32.51421 151.81605 14852 ft 290 kts 133°
2026-04-23 23:37 -32.52809 151.83335 14472 ft 289 kts 133°
2026-04-23 23:37 -32.54194 151.85060 14067 ft 288 kts 133°
2026-04-23 23:38 -32.55572 151.86771 13702 ft 285 kts 133°
2026-04-23 23:38 -32.56863 151.88547 13310 ft 283 kts 122°
2026-04-23 23:38 -32.57770 151.90573 12952 ft 281 kts 116°
2026-04-23 23:38 -32.58617 151.92664 12541 ft 280 kts 116°
2026-04-23 23:39 -32.59464 151.94742 12157 ft 278 kts 115°
2026-04-23 23:39 -32.60301 151.96802 11774 ft 276 kts 115°
2026-04-23 23:39 -32.61134 151.98847 11293 ft 276 kts 115°
2026-04-23 23:39 -32.61990 152.00955 10491 ft 287 kts 115°
2026-04-23 23:40 -32.62844 152.03056 10125 ft 279 kts 115°
2026-04-23 23:40 -32.63680 152.05107 9742 ft 272 kts 115°
2026-04-23 23:40 -32.64495 152.07114 9368 ft 268 kts 115°
2026-04-23 23:40 -32.65293 152.09084 9094 ft 263 kts 115°
2026-04-23 23:41 -32.66236 152.10934 8823 ft 265 kts 133°
2026-04-23 23:41 -32.67838 152.11998 8579 ft 271 kts 166°
2026-04-23 23:41 -32.69726 152.12131 8418 ft 274 kts 176°
2026-04-23 23:41 -32.71638 152.12149 8159 ft 275 kts 176°
2026-04-23 23:42 -32.73552 152.12185 7933 ft 275 kts 176°
2026-04-23 23:42 -32.75463 152.12221 7675 ft 273 kts 176°
2026-04-23 23:42 -32.77358 152.12260 7478 ft 271 kts 176°
2026-04-23 23:42 -32.79250 152.12302 7265 ft 271 kts 176°
2026-04-23 23:43 -32.81139 152.12344 7051 ft 272 kts 176°
2026-04-23 23:43 -32.83009 152.12387 6795 ft 271 kts 176°
2026-04-23 23:43 -32.84889 152.12427 6562 ft 268 kts 176°
2026-04-23 23:43 -32.86723 152.12467 6329 ft 259 kts 176°
2026-04-23 23:44 -32.88501 152.12500 6044 ft 253 kts 179°
2026-04-23 23:44 -32.90173 152.11938 5749 ft 251 kts 208°
2026-04-23 23:44 -32.91491 152.10655 5538 ft 239 kts 220°
2026-04-23 23:44 -32.92694 152.09354 5166 ft 229 kts 218°
2026-04-23 23:45 -32.93868 152.08127 4843 ft 220 kts 219°
2026-04-23 23:45 -32.94751 152.06668 4558 ft 216 kts 243°
2026-04-23 23:45 -32.94942 152.04929 4280 ft 212 kts 279°
2026-04-23 23:45 -32.94365 152.03358 4054 ft 205 kts 310°
2026-04-23 23:46 -32.93385 152.02147 3824 ft 202 kts 318°
2026-04-23 23:46 -32.92360 152.00991 3525 ft 203 kts 317°
2026-04-23 23:46 -32.91382 151.99826 3268 ft 195 kts 315°
2026-04-23 23:46 -32.90465 151.98670 3103 ft 186 kts 313°
2026-04-23 23:47 -32.89626 151.97511 3181 ft 185 kts 310°
2026-04-23 23:47 -32.88825 151.96380 3039 ft 171 kts 310°
2026-04-23 23:47 -32.88089 151.95342 2714 ft 162 kts 310°
2026-04-23 23:47 -32.87380 151.94338 2345 ft 155 kts 310°
2026-04-23 23:48 -32.86698 151.93374 1926 ft 150 kts 310°
2026-04-23 23:48 -32.86045 151.92449 1574 ft 139 kts 309°
2026-04-23 23:48 -32.85441 151.91591 1316 ft 134 kts 309°
2026-04-23 23:48 -32.84839 151.90743 1078 ft 134 kts 309°
2026-04-23 23:49 -32.83662 151.89081 696 ft 130 kts 309°
2026-04-23 23:49 -32.83084 151.88281 569 ft 126 kts 309°
2026-04-23 23:49 -32.82505 151.87474 465 ft 129 kts 310°
2026-04-23 23:50 -32.81944 151.86702 396 ft 119 kts 310°
2026-04-23 23:50 -32.81411 151.85966 238 ft 116 kts 309°
2026-04-23 23:50 -32.80891 151.85257 109 ft 115 kts 311°
2026-04-23 23:50 -32.80358 151.84542 29 ft 108 kts 310°
2026-04-23 23:51 -32.79933 151.83961 30 ft 78 kts 311°
2026-04-23 23:51 -32.79642 151.83558 29 ft 56 kts 310°
2026-04-23 23:51 -32.79407 151.83231 32 ft 48 kts 310°
2026-04-23 23:51 -32.79240 151.83014 34 ft 21 kts 333°
2026-04-23 23:52 -32.79161 151.83046 33 ft 11 kts 48°
2026-04-23 23:52 -32.79137 151.83135 34 ft 13 kts 112°
2026-04-23 23:52 -32.79202 151.83230 34 ft 16 kts 131°
2026-04-23 23:52 -32.79282 151.83341 33 ft 20 kts 130°
2026-04-23 23:53 -32.79378 151.83474 32 ft 23 kts 129°
2026-04-23 23:53 -32.79486 151.83627 31 ft 26 kts 130°
2026-04-23 23:53 -32.79608 151.83797 30 ft 28 kts 130°
2026-04-23 23:53 -32.79740 151.83982 30 ft 30 kts 131°
2026-04-23 23:54 -32.79872 151.84167 29 ft 29 kts 131°
2026-04-23 23:54 -32.79999 151.84345 27 ft 26 kts 130°
2026-04-23 23:54 -32.80103 151.84492 26 ft 20 kts 130°
2026-04-23 23:54 -32.80222 151.84529 25 ft 21 kts 214°
2026-04-23 23:55 -32.80342 151.84411 25 ft 23 kts 219°
2026-04-23 23:55 -32.80441 151.84316 28 ft 18 kts 224°
2026-04-23 23:55 -32.80439 151.84203 26 ft 11 kts 308°
2026-04-23 23:55 -32.80409 151.84133 27 ft 10 kts 274°
2026-04-23 23:56 -32.80405 151.84056 27 ft 0 kts 274°